Date String (YYYY-MM-DD hh:mm:ss) UTC,Instrument flags,absolute air pressure of the measurement (hPa),sample flow rate (lpm),inlet stack bypass flow (lpm),air temperature of the measurement (°C),ambient temperature measured by the external sensor (°C),aerosol sample conditioner tube jacket temperature (°C),OPC LED temperature (°C),internal box temperature (°C),relative humidity of the measurement (%),span deviation,mass concentration of particles derived from Lorenz-Mie calculation of OPC scattering (μg/m³),mass concentration of particles derived from Lorenz-Mie calculation of OPC scattering (μg/m³),mass concentration of particles derived from Lorenz-Mie calculation of OPC scattering (μg/m³)
DateTimeUTC,F1_M11,P_M11,Q1_M11,Q2_M11,T1_M11,T2_M11,T3_M11,T4_M11,T5_M11,U1_M11,ZSPAN_M11,X0_M11,X2_M11,X1_M11
2023-12-14 01:00:00,SystemResetWarning,0837.2,5.00,000.00,018.9,018.0,000.0,027.2,020.2,22.0,0000.6,0019.55,0016.20,0015.66
2023-12-14 01:01:00,SystemResetWarning,0837.2,5.00,000.00,018.9,018.0,000.0,027.2,020.2,21.9,0000.5,0019.74,0016.26,0015.70
2023-12-14 01:02:00,SystemResetWarning,0837.2,5.00,000.00,018.9,018.0,000.0,027.2,020.2,21.9,0000.5,0019.69,0016.26,0015.70
2023-12-14 01:03:00,SystemResetWarning,0837.2,5.00,000.00,018.9,018.1,000.0,027.2,020.2,22.0,0000.7,0019.73,0016.28,0015.71
2023-12-14 01:04:00,SystemResetWarning,0837.2,5.00,000.00,018.9,018.1,000.0,027.2,020.2,22.0,0000.6,0020.21,0016.29,0015.72
2023-12-14 01:05:00,SystemResetWarning,0837.2,5.00,000.00,018.9,018.1,000.0,027.2,020.2,22.0,0000.6,0020.34,0016.27,0015.71
2023-12-14 01:06:00,SystemResetWarning,0837.2,5.00,000.00,018.9,018.1,000.0,027.2,020.2,21.9,0000.7,0020.33,0016.25,0015.70
2023-12-14 01:07:00,SystemResetWarning,0837.2,5.00,000.00,018.9,018.1,000.0,027.2,020.2,21.9,0000.6,0020.49,0016.30,0015.70
2023-12-14 01:08:00,SystemResetWarning,0837.2,5.01,000.00,019.0,018.1,000.0,027.2,020.2,21.9,0000.5,0020.55,0016.31,0015.68
2023-12-14 01:09:00,SystemResetWarning,0837.3,5.00,000.00,019.0,018.1,000.0,027.2,020.2,21.9,0000.4,0020.44,0016.31,0015.65
2023-12-14 01:10:00,SystemResetWarning,0837.2,4.99,000.00,019.0,018.1,000.0,027.2,020.2,22.0,0000.1,0020.22,0016.31,0015.63
2023-12-14 01:11:00,SystemResetWarning,0837.3,5.00,000.00,019.0,018.1,000.0,027.2,020.2,22.0,0000.3,0020.12,0016.28,0015.62
2023-12-14 01:12:00,SystemResetWarning,0837.3,5.00,000.00,019.0,018.1,000.0,027.2,020.2,22.0,0000.3,0020.01,0016.27,0015.61
2023-12-14 01:13:00,SystemResetWarning,0837.4,5.00,000.00,019.0,018.1,000.0,027.2,020.2,22.0,0000.1,0019.97,0016.25,0015.59
2023-12-14 01:14:00,SystemResetWarning,0837.4,5.00,000.00,019.0,018.1,000.0,027.2,020.2,22.0,0000.2,0020.19,0016.24,0015.57
2023-12-14 01:15:00,SystemResetWarning,0837.4,5.00,000.00,019.0,018.1,000.0,027.2,020.2,22.0,0000.3,0019.90,0016.21,0015.57
2023-12-14 01:16:00,SystemResetWarning,0837.4,5.00,000.00,019.0,018.1,000.0,027.2,020.2,22.0,0000.3,0019.63,0016.18,0015.55
2023-12-14 01:17:00,SystemResetWarning,0837.5,5.00,000.00,019.0,018.1,000.0,027.2,020.2,22.0,0000.2,0019.66,0016.15,0015.53
2023-12-14 01:18:00,SystemResetWarning,0837.5,4.99,000.00,019.0,018.1,000.0,027.2,020.2,22.0,0000.2,0020.76,0016.12,0015.52
2023-12-14 01:19:00,SystemResetWarning,0837.5,5.00,000.00,019.0,018.1,000.0,027.2,020.2,22.0,0000.3,0020.75,0016.10,0015.52
2023-12-14 01:20:00,SystemResetWarning,0837.5,5.00,000.00,019.0,018.1,000.0,027.2,020.2,22.0,0000.5,0020.72,0016.11,0015.54
2023-12-14 01:21:00,SystemResetWarning,0837.5,5.00,000.00,019.0,018.1,000.0,027.2,020.2,22.0,0000.6,0020.63,0016.07,0015.53
2023-12-14 01:22:00,SystemResetWarning,0837.5,5.00,000.00,019.0,018.1,000.0,027.2,020.2,22.1,0000.5,0020.60,0016.09,0015.55
2023-12-14 01:23:00,SystemResetWarning,0837.5,4.99,000.00,019.0,018.1,000.0,027.2,020.2,22.3,0000.5,0020.52,0016.07,0015.56
2023-12-14 01:24:00,SystemResetWarning,0837.5,5.00,000.00,019.0,018.1,000.0,027.2,020.2,22.4,0000.6,0020.59,0016.12,0015.61
2023-12-14 01:25:00,SystemResetWarning,0837.5,5.00,000.00,019.0,018.1,000.0,027.2,020.1,22.4,0000.6,0020.40,0016.13,0015.65
2023-12-14 01:26:00,SystemResetWarning,0837.5,5.00,000.00,018.9,018.1,000.0,027.2,020.1,22.3,0000.6,0020.66,0016.13,0015.64
2023-12-14 01:27:00,SystemResetWarning,0837.5,5.00,000.00,018.9,018.1,000.0,027.2,020.1,22.4,0000.5,0020.94,0016.13,0015.64
2023-12-14 01:28:00,SystemResetWarning,0837.5,5.00,000.00,018.9,018.1,000.0,027.2,020.1,22.4,0000.5,0020.98,0016.18,0015.68
2023-12-14 01:29:00,SystemResetWarning,0837.5,5.00,000.00,018.9,018.0,000.0,027.2,020.1,22.4,0000.6,0020.05,0016.19,0015.69
2023-12-14 01:30:00,SystemResetWarning,0837.5,5.00,000.00,018.9,018.0,000.0,027.2,020.1,22.3,0000.8,0020.18,0016.24,0015.71
2023-12-14 01:31:00,SystemResetWarning,0837.5,5.00,000.00,018.9,018.0,000.0,027.2,020.1,22.2,0000.5,0020.25,0016.28,0015.74
2023-12-14 01:32:00,SystemResetWarning,0837.5,5.00,000.00,018.9,018.0,000.0,027.2,020.1,22.1,0000.6,0020.42,0016.34,0015.78
2023-12-14 01:33:00,SystemResetWarning,0837.5,5.00,000.00,018.9,018.0,000.0,027.2,020.1,22.1,0000.6,0020.56,0016.39,0015.80
2023-12-14 01:34:00,SystemResetWarning,0837.5,5.00,000.00,018.9,018.0,000.0,027.2,020.1,22.1,0000.6,0020.62,0016.38,0015.80
2023-12-14 01:35:00,SystemResetWarning,0837.4,5.00,000.00,018.9,018.0,000.0,027.2,020.1,22.1,0000.8,0020.57,0016.35,0015.77
2023-12-14 01:36:00,SystemResetWarning,0837.5,5.01,000.00,018.9,018.0,000.0,027.2,020.1,22.0,0000.6,0020.59,0016.35,0015.76
2023-12-14 01:37:00,SystemResetWarning,0837.5,5.00,000.00,018.9,018.0,000.0,027.2,020.1,22.0,0000.3,0020.25,0016.39,0015.78
2023-12-14 01:38:00,SystemResetWarning,0837.4,5.00,000.00,018.9,018.0,000.0,027.2,020.1,21.9,0000.5,0020.42,0016.47,0015.84
2023-12-14 01:39:00,SystemResetWarning,0837.4,5.00,000.00,018.9,018.0,000.0,027.2,020.1,21.9,0000.5,0020.68,0016.48,0015.86
2023-12-14 01:40:00,SystemResetWarning,0837.4,5.00,000.00,018.9,018.0,000.0,027.2,020.1,21.9,0000.2,0020.63,0016.53,0015.89
2023-12-14 01:41:00,SystemResetWarning,0837.4,5.00,000.00,018.9,018.0,000.0,027.2,020.1,21.9,-000.0,0020.46,0016.53,0015.91
2023-12-14 01:42:00,SystemResetWarning,0837.4,5.00,000.00,018.9,018.1,000.0,027.2,020.2,21.9,-000.0,0020.44,0016.53,0015.93
2023-12-14 01:43:00,SystemResetWarning,0837.4,5.00,000.00,018.9,018.1,000.0,027.2,020.2,21.9,-000.2,0020.38,0016.55,0015.93
2023-12-14 01:44:00,SystemResetWarning,0837.5,5.01,000.00,018.9,018.1,000.0,027.2,020.2,21.9,-000.3,0020.58,0016.55,0015.94
2023-12-14 01:45:00,SystemResetWarning,0837.4,5.00,000.00,018.9,018.1,000.0,027.2,020.2,21.8,-000.2,0021.18,0016.61,0015.97
2023-12-14 01:46:00,SystemResetWarning,0837.4,5.00,000.00,019.0,018.1,000.0,027.2,020.2,21.8,-000.2,0021.21,0016.64,0015.99
2023-12-14 01:47:00,SystemResetWarning,0837.4,4.99,000.00,019.0,018.1,000.0,027.2,020.2,21.8,-000.2,0021.25,0016.66,0016.02
2023-12-14 01:48:00,SystemResetWarning,0837.4,5.00,000.00,019.0,018.1,000.0,027.2,020.2,21.8,-000.1,0021.30,0016.67,0016.04
2023-12-14 01:49:00,SystemResetWarning,0837.4,4.99,000.00,019.0,018.1,000.0,027.2,020.2,21.8,-000.3,0020.93,0016.64,0016.02
2023-12-14 01:50:00,SystemResetWarning,0837.4,5.00,000.00,019.0,018.1,000.0,027.2,020.2,21.8,-000.3,0020.70,0016.67,0016.03
2023-12-14 01:51:00,SystemResetWarning,0837.3,5.00,000.00,019.0,018.1,000.0,027.2,020.2,21.8,0000.0,0020.69,0016.68,0016.01
2023-12-14 01:52:00,SystemResetWarning,0837.3,5.00,000.00,019.0,018.1,000.0,027.2,020.2,21.8,0000.1,0020.68,0016.65,0016.00
2023-12-14 01:53:00,SystemResetWarning,0837.2,5.01,000.00,019.0,018.1,000.0,027.2,020.2,21.8,0000.2,0021.23,0016.68,0015.98
2023-12-14 01:54:00,SystemResetWarning,0837.3,5.01,000.00,019.0,018.1,000.0,027.2,020.2,22.0,0000.3,0021.21,0016.65,0015.97
2023-12-14 01:55:00,SystemResetWarning,0837.3,5.00,000.00,019.0,018.1,000.0,027.2,020.2,22.1,0000.5,0020.86,0016.54,0015.91
2023-12-14 01:56:00,SystemResetWarning,0837.2,5.00,000.00,018.9,018.1,000.0,027.2,020.2,22.1,0000.5,0020.18,0016.45,0015.83
2023-12-14 01:57:00,SystemResetWarning,0837.2,4.99,000.00,018.9,018.1,000.0,027.2,020.2,22.1,0000.3,0020.04,0016.36,0015.77
2023-12-14 01:58:00,SystemResetWarning,0837.2,4.99,000.00,018.9,018.0,000.0,027.2,020.2,22.1,0000.3,0019.97,0016.32,0015.72
2023-12-14 01:59:00,SystemResetWarning,0837.2,5.00,000.00,018.9,018.0,000.0,027.2,020.1,22.1,0000.3,0019.86,0016.27,0015.70
